Location: Central Coast
(33.3208°S, 151.2336°E)
Time: 13:50:21
(UTC+11:00)

Tiangong 1 - Pass Details

Date: 13 October 2017
Orbit: 293 x 320 km, 42.8° (Epoch: 20 October)

Event Time Altitude Azimuth Distance (km) Brightness Sun altitude
Exits shadow 05:21:20 10° 230° (SW) 1,169 3.2 -12.1°
Maximum altitude 05:22:54 15° 192° (SSW) 962 3.1 -11.8°
Drops below altitude 10° 05:24:33 10° 154° (SSE) 1,196 4.2 -11.5°
Sets 05:27:06 0° 128° (SE) 2,032 6.2 -11.0°
